Location: *
(48.8780°N, 19.2358°E)
Time: 13:05:30
(UTC+00:00)

Cosmos 921 Rocket - Pass Details

Date: 18 October 2019
Orbit: 572 x 631 km, 75.8° (Epoch: 17 November)

Event Time Altitude Azimuth Distance (km) Brightness Sun altitude
Rises 17:09:51 0° 209° (SSW) 2,910 6.9 -14.1°
Reaches altitude 10° 17:12:08 10° 213° (SSW) 2,004 6.1 -14.5°
Maximum altitude 17:16:34 59° 293° (WNW) 730 3.7 -15.2°
Drops below altitude 10° 17:20:58 10° 14° (NNE) 1,996 5.6 -15.9°
Sets 17:23:15 0° 18° (NNE) 2,897 6.4 -16.3°
